#timestamp,LO_Frequency,Hit,StdDev 
1608519615.8,286046996.8,N
1608519635.6,286046997.3,N
1608519655.5,286046997.3,N
1608519675.3,286046997.1,N
1608519695.1,286046997.7,N
1608519715.9,286046999.1,N
1608519735.7,286046996.9,N
1608519755.5,286046996.9,N
1608519775.4,286046999.1,N
1608519795.2,286046999.4,N
1608519815.0,286046998.7,N
1608519815.9,286046998.7,N
1608519835.8,286046999.5,N
1608519855.6,286046999.3,N
1608519875.4,286046998.3,N
1608519895.3,286046998.9,N
1608519915.1,286046997.4,N
1608519935.8,286046997.4,N
1608519955.7,286046997.5,N
1608519975.5,286046996.6,Y
1608519995.3,286047001.2,P
1608520015.2,286047000.9,N
1608520035.9,286047000.6,N
1608520055.7,286047001.0,N
1608520075.6,286047000.3,N
1608520095.4,286046999.9,N
1608520115.2,286046999.9,N
1608520135.1,286047002.3,N
1608520136.0,286047002.3,N
1608520155.8,286047002.8,N
1608520175.6,286047000.5,N
1608520195.5,286047001.2,N
1608520215.3,286047001.0,N
1608520235.1,286047000.0,N
1608520255.9,286047000.7,N
1608520275.7,286046999.7,N
1608520295.5,286046999.7,N
1608520315.4,286047000.1,N
1608520335.2,286047002.7,N
1608520355.0,286046999.7,N
1608520355.9,286046999.7,N
1608520375.8,286047000.0,N
1608520395.6,286047000.3,N
1608520415.4,286047002.3,N
1608520435.3,286047002.5,N
1608520455.1,286047001.5,N
1608520475.8,286047002.6,N
1608520495.7,286047001.8,N
1608520515.5,286047001.7,N
1608520535.3,286047002.1,N
1608520555.2,286047001.6,N
1608520575.9,286047001.6,N
1608520595.7,286047001.5,N
1608520615.6,286047001.7,N
1608520635.4,286047001.4,N
1608520655.2,286047004.3,Y
1608520675.1,286047002.8,P
1608520706.0,286047001.6,E
1608520715.9,286047000.1,N
1608520735.7,286047000.8,P
1608520755.6,286046998.1,P
1608520775.4,286046999.0,N
1608520795.2,286046998.2,N
1608520815.1,286047000.6,N
1608520816.0,286047000.6,N
1608520835.8,286047002.7,N
1608520855.6,286047001.0,N
1608520875.5,286047002.7,N
1608520895.3,286047000.9,N
1608520915.1,286047002.8,N
1608520935.9,286047000.1,N
1608520955.7,286046999.8,N
1608520975.5,286047002.2,N
1608520995.4,286047001.4,N
1608521015.2,286047001.7,N
1608521035.0,286047002.2,N
1608521035.9,286047002.2,N
1608521055.8,286047002.2,N
1608521075.6,286046999.8,N
1608521095.4,286047002.5,N
1608521115.3,286047002.4,N
1608521135.1,286047000.0,N
1608521136.0,286047000.0,N
1608521155.8,286046999.7,N
1608521175.7,286047000.5,N
1608521195.5,286047001.8,N
1608521215.3,286047002.2,N
1608521235.2,286047002.1,N
1608521255.9,286047002.4,N
1608521275.7,286047002.3,N
1608521295.6,286047002.1,N
1608521315.4,286047004.4,Y
1608521335.2,286047002.3,P
1608521355.1,286047004.4,P
1608521356.0,286047004.4,P
1608521375.8,286047001.7,N
1608521395.6,286047001.7,N
1608521415.5,286047001.9,N
1608521435.3,286047003.9,Y
1608521455.1,286047000.4,P
1608521475.9,286047001.0,N
1608521495.7,286047002.1,N
1608521515.5,286047001.8,N
1608521535.4,286047002.6,Y
1608521555.2,286047001.2,P
1608521575.0,286047001.2,P
1608521575.9,286047001.2,P
1608521595.8,286047000.8,Y
1608521615.6,286046998.4,P
1608521635.4,286047001.1,N
1608521655.3,286046998.5,N
1608521675.1,286047000.7,N
1608521695.8,286046998.4,N
1608521715.7,286047001.1,N
1608521735.5,286047001.1,N
1608521755.3,286046999.9,N
1608521775.2,286047000.4,N
1608521795.0,286046999.7,N
1608521795.9,286046999.7,N
1608521815.7,286047000.5,N
1608521835.6,286047000.8,N
1608521855.4,286047000.6,N
1608521875.2,286047001.2,N
1608521895.1,286047000.3,N
1608521896.0,286047000.3,N
1608521915.8,286047000.6,N
1608521935.7,286046999.9,N
1608521955.5,286047000.0,N
1608521975.3,286046999.8,N
1608521995.2,286047002.8,Y
1608522015.9,286047002.7,P
1608522035.7,286046999.7,N
1608522055.6,286047000.0,N
1608522075.4,286047001.0,N
1608522095.2,286047000.3,N
1608522115.0,286047000.3,N
1608522116.0,286047000.3,N
1608522135.8,286047000.6,N
1608522155.6,286047000.3,N
1608522175.5,286047000.3,N
1608522195.3,286046999.9,N
1608522215.1,286047000.0,N
1608522235.9,286047001.0,N
1608522255.7,286047001.2,N
1608522275.5,286047000.9,N
1608522295.4,286047000.3,N
1608522315.2,286046998.2,N
1608522335.0,286047000.5,N
1608522335.9,286047000.5,N
1608522355.8,286047002.7,Y
1608522375.6,286047000.6,P
1608522395.4,286047000.3,N
1608522415.3,286047000.1,N
1608522435.1,286046999.9,N
1608522436.0,286046999.9,N
1608522455.8,286046999.9,N
1608522475.7,286047000.1,N
1608522495.5,286046999.8,N
1608522515.3,286047001.2,Y
1608522535.2,286046998.7,P
1608522555.9,286046998.6,N
1608522575.7,286047001.1,N
1608522595.6,286047000.7,N
1608522615.4,286047000.5,N
1608522635.2,286046998.3,N
1608522655.1,286046999.1,N
1608522656.0,286046999.1,N
1608522675.8,286046999.6,N
1608522695.6,286046996.8,Y
1608522715.5,286046996.6,P
1608522735.3,286047001.2,N
1608522755.1,286046999.4,N
1608522775.9,286046998.8,N
1608522795.7,286046999.1,N
1608522815.5,286046999.5,N
1608522835.4,286046996.5,N
1608522855.2,286046999.6,N
1608522875.0,286046999.1,N
1608522875.9,286046999.1,N
1608522895.8,286046999.4,N
1608522915.6,286046996.5,N
1608522935.4,286046996.6,N
1608522955.3,286046996.6,N
1608522975.1,286046996.9,N
1608522976.0,286046996.9,N
1608522995.8,286046997.1,N
1608523015.7,286046997.2,N
1608523035.5,286046997.7,N
1608523055.3,286046995.2,Y
1608523075.2,286046999.6,P
1608523095.9,286046997.0,P
1608523115.7,286046999.2,N
1608523135.6,286046999.4,N
1608523155.4,286046999.0,N
1608523175.2,286046996.7,Y
1608523195.1,286046998.9,P
1608523196.0,286046998.9,P
